Retour au catalogue

STARLINK-34046

ActifCommunicationsVLEO
NORAD 64035·PAYLOAD·🇺🇸 United States

Lancé May 16, 2025 depuis Vandenberg Space Force Base

Loading…

Prochains Passages (prochaines 24 heures)

TLE

FraisSource: CelesTrak SupGP

Époque: Sep 15, 2026, 02:48 UTC

1 64035C 25102P   26258.11715278  .00091347  00000+0  31772-2 0  2586
2 64035  70.0009 355.0074 0003407 269.0076 305.5938 15.29537244    10

Suivez STARLINK-34046 en temps réel avec AllMySat

Download on the App Store